This is the latest recevied weather packets stored in our database for station/object EA3GKP-10. If no packets are shown the sender has not sent any weather packets the latest 10 day(s).
| Time | Temp. | Humidity | Pressure | Rain* | Wind** | Luminosity | Snow |
|---|---|---|---|---|---|---|---|
| 1777833025 | 20.56° C | - | - | 0 mm | 0 m/s | - | - |
| 1777832722 | 20° C | - | - | 0 mm | 1.34 m/s, 103° | - | - |
| 1777832417 | 20° C | - | - | 0 mm | 0.89 m/s, 359° | - | - |
| 1777832114 | 20° C | - | - | 0 mm | 1.34 m/s, 87° | - | - |
| 1777831810 | 20° C | - | - | 0 mm | 2.24 m/s, 359° | - | - |
| 1777831504 | 20.56° C | - | - | 0 mm | 1.79 m/s, 46° | - | - |
| 1777831200 | 20° C | - | - | 0 mm | 1.34 m/s, 70° | - | - |
| 1777830897 | 20° C | - | - | 0 mm | 1.79 m/s, 359° | - | - |
| 1777830595 | 20.56° C | - | - | 0 mm | 1.79 m/s, 98° | - | - |
| 1777830290 | 20.56° C | - | - | 0 mm | 0.89 m/s, 101° | - | - |
| 1777829986 | 20° C | - | - | 0 mm | 2.68 m/s, 100° | - | - |
| 1777829684 | 20.56° C | - | - | 0 mm | 1.34 m/s, 135° | - | - |
| 1777829380 | 20.56° C | - | - | 0 mm | 2.24 m/s, 129° | - | - |
| 1777829077 | 20.56° C | - | - | 0 mm | 1.34 m/s, 149° | - | - |
| 1777828773 | 20.56° C | - | - | 0 mm | 1.79 m/s, 149° | - | - |
| 1777828469 | 20.56° C | - | - | 0 mm | 1.34 m/s, 94° | - | - |
| 1777828166 | 20° C | - | - | 0 mm | 1.79 m/s, 124° | - | - |
| 1777827860 | 20° C | - | - | 0 mm | 2.24 m/s, 93° | - | - |
| 1777827552 | 19.44° C | - | - | 0 mm | 2.68 m/s, 111° | - | - |
| 1777827250 | 20° C | - | - | 0 mm | 1.79 m/s, 100° | - | - |
| 1777826943 | 20° C | - | - | 0 mm | 2.68 m/s, 75° | - | - |
| 1777826640 | 20.56° C | - | - | 0 mm | 1.79 m/s, 150° | - | - |
| 1777826336 | 20.56° C | - | - | 0 mm | 1.79 m/s, 117° | - | - |
| 1777826033 | 20° C | - | - | 0 mm | 2.68 m/s, 105° | - | - |
| 1777825730 | 20° C | - | - | 0 mm | 2.24 m/s, 166° | - | - |
* Rain latest hour (hover to see other rain measurements)
** Current wind speed in m/s (hover to see current wind gust speed)